This demonstration page uses our WeatherBlox Daily Observations layout. Learn more.

39.92423, -83.80882

Hourly Observations for December 6, 2019

Temp ( °F °C ) Dew Point ( °F °C ) Humidity (%) Winds ( mph kmh ) Pressure ( in mb ) Visibility ( mi km ) Precip ( " mm )
12:56 am 00:56 Clear 37 2.8 29 -1.7 73 73 SSW 6 9 30.03 1017 10 16.09344 0 0
1:56 am 01:56 Clear 39 3.9 29 -1.7 67 67 SSW 10 17 30.03 1017 10 16.09344 0 0
2:56 am 02:56 Mostly Clear 40 4.4 30 -1.1 68 68 SW 8 13 30.03 1017 10 16.09344 0 0
3:56 am 03:56 Partly Cloudy 40 4.4 31 -0.6 70 70 SW 8 13 30.03 1017 10 16.09344 0 0
4:56 am 04:56 Cloudy 41 5 31 -0.6 67 67 SSW 9 15 30 1016 10 16.09344 0 0
5:56 am 05:56 Cloudy 41 5 32 0 70 70 SSW 8 13 30 1016 10 16.09344 0 0
6:56 am 06:56 Cloudy 42 5.6 33 0.6 71 71 SSW 8 13 30.03 1017 10 16.09344 0 0
7:56 am 07:56 Cloudy 43 6.1 33 0.6 68 68 SSW 10 17 30.03 1017 10 16.09344 0 0
8:56 am 08:56 Mostly Cloudy 44 6.7 34 1.1 68 68 SW 9 15 30.03 1017 10 16.09344 0 0
9:56 am 09:56 Cloudy 48 8.9 37 2.8 66 66 WSW 15 24 30.06 1018 10 16.09344 0 0
10:56 am 10:56 Sunny 49 9.4 38 3.3 66 66 W 12 19 30.09 1019 10 16.09344 0 0
11:56 am 11:56 Mostly Cloudy 48 8.9 39 3.9 71 71 NW 12 19 30.12 1020 10 16.09344 0 0
12:56 pm 12:56 Cloudy 45 7.2 38 3.3 77 77 NNW 14 22 30.12 1020 10 16.09344 0 0
1:56 pm 13:56 Cloudy 45 7.2 38 3.3 77 77 N 13 20 30.12 1020 10 16.09344 0 0
2:56 pm 14:56 Cloudy 42 5.6 37 2.8 82 82 NNW 14 22 30.15 1021 8 12.874752 0 0
3:56 pm 15:56 Cloudy 41 5 35 1.7 79 79 N 12 19 30.18 1022 10 16.09344 0 0
4:21 pm 16:21 Mostly Cloudy 43 6 34 1 71 71 N 14 22 30.21 1023 10 16.09344 0 0
4:31 pm 16:31 Mostly Cloudy 41 5 32 0 70 70 N 13 20 30.21 1023 10 16.09344 0 0
4:56 pm 16:56 Cloudy 40 4.4 31 -0.6 70 70 N 15 24 30.21 1023 10 16.09344 0 0
5:56 pm 17:56 Clear 34 1.1 28 -2.2 79 79 N 7 11 30.24 1024 10 16.09344 0 0
6:56 pm 18:56 Clear 34 1.1 27 -2.8 76 76 N 8 13 30.27 1025 10 16.09344 0 0
7:56 pm 19:56 Clear 32 0 27 -2.8 82 82 N 8 13 30.3 1026 10 16.09344 0 0
8:56 pm 20:56 Clear 29 -1.7 25 -3.9 85 85 N 7 11 30.33 1027 10 16.09344 0 0
9:56 pm 21:56 Clear 29 -1.7 25 -3.9 85 85 N 5 7 30.33 1027 10 16.09344 0 0
10:56 pm 22:56 Clear 29 -1.7 25 -3.9 85 85 N 8 13 30.33 1027 10 16.09344 0 0
11:56 pm 23:56 Clear 28 -2.2 25 -3.9 88 88 NE 3 6 30.36 1028 10 16.09344 0 0

Powered by AerisWeather